• In Hungary
  • List of Countries
  • For 7 days
  • Water Temperature
  • Satellite Maps
  • Weather Map
  • News
  • Weather Widgets
  • user-avatar
    Login

    Hourly Weather Crowthorne

    Today, 21 November, Tuesday

    Time Temperature Precipitation Wind Pressure Humidity
    00:00 +12°C° 0 mm 5 mps 752 mmHg 93%
    01:00 +12°C° 0 mm 5 mps 752 mmHg 93%
    02:00 +12°C° 0 mm 5 mps 752 mmHg 92%
    03:00 +12°C° 0 mm 5 mps 752 mmHg 92%
    04:00 +12°C° 0 mm 5 mps 752 mmHg 92%
    05:00 +10°C° 0 mm 5 mps 751 mmHg 93%
    06:00 +11°C° 0 mm 4 mps 751 mmHg 92%
    07:00 +10°C° 0 mm 5 mps 751 mmHg 91%
    08:00 +10°C° 0 mm 5 mps 751 mmHg 90%
    09:00 +10°C° 0 mm 5 mps 751 mmHg 89%
    10:00 +10°C° 0 mm 5 mps 751 mmHg 87%
    11:00 +11°C° 0 mm 6 mps 751 mmHg 85%
    12:00 +11°C° 0 mm 6 mps 751 mmHg 83%
    13:00 +11°C° 0 mm 6 mps 750 mmHg 83%
    14:00 +11°C° 0 mm 6 mps 750 mmHg 83%
    15:00 +11°C° 0 mm 6 mps 749 mmHg 83%
    16:00 +11°C° 0 mm 6 mps 749 mmHg 84%
    17:00 +11°C° 0 mm 6 mps 748 mmHg 84%
    18:00 +11°C° 0 mm 7 mps 748 mmHg 85%
    19:00 +11°C° 0 mm 7 mps 747 mmHg 85%
    20:00 +11°C° 0 mm 7 mps 747 mmHg 85%
    21:00 +11°C° 0 mm 8 mps 747 mmHg 85%
    22:00 +11°C° 0 mm 8 mps 746 mmHg 85%
    23:00 +11°C° 0 mm 8 mps 746 mmHg 85%

    Tomorrow, 22 November, Wednesday

    Time Temperature Precipitation Wind Pressure Humidity
    00:00 +11°C° 0 mm 8 mps 746 mmHg 84%
    01:00 +11°C° 0 mm 7 mps 745 mmHg 84%
    02:00 +11°C° 0 mm 7 mps 745 mmHg 84%
    03:00 +11°C° 0 mm 7 mps 745 mmHg 83%
    04:00 +12°C° 0 mm 7 mps 744 mmHg 83%
    05:00 +12°C° 0 mm 8 mps 744 mmHg 84%
    06:00 +12°C° 0 mm 8 mps 743 mmHg 84%
    07:00 +12°C° 0 mm 8 mps 743 mmHg 81%
    08:00 +12°C° 0 mm 8 mps 743 mmHg 78%
    09:00 +12°C° 0 mm 8 mps 743 mmHg 76%
    10:00 +12°C° 0 mm 9 mps 742 mmHg 72%
    11:00 +13°C° 0 mm 10 mps 742 mmHg 68%
    12:00 +13°C° 0 mm 10 mps 741 mmHg 64%
    13:00 +13°C° 0 mm 10 mps 740 mmHg 63%
    14:00 +13°C° 0 mm 10 mps 739 mmHg 63%
    15:00 +13°C° 0 mm 10 mps 738 mmHg 62%
    16:00 +13°C° 0 mm 11 mps 738 mmHg 62%
    17:00 +14°C° 0 mm 11 mps 737 mmHg 62%
    18:00 +14°C° 0 mm 12 mps 736 mmHg 62%
    19:00 +13°C° 0.5 mm 12 mps 736 mmHg 67%
    20:00 +13°C° 0.5 mm 12 mps 736 mmHg 71%
    21:00 +13°C° 0.5 mm 12 mps 735 mmHg 76%
    22:00 +13°C° 1 mm 12 mps 735 mmHg 78%
    23:00 +12°C° 1 mm 12 mps 734 mmHg 80%

    Day after tomorrow, 23 November, Thursday

    Time Temperature Precipitation Wind Pressure Humidity
    00:00 +12°C° 1 mm 12 mps 733 mmHg 81%
    01:00 +12°C° 0.5 mm 11 mps 733 mmHg 82%
    02:00 +12°C° 0.5 mm 10 mps 733 mmHg 83%
    03:00 +12°C° 0.5 mm 10 mps 733 mmHg 83%
    04:00 +11°C° 0.1 mm 9 mps 734 mmHg 82%
    05:00 +11°C° 0.1 mm 9 mps 736 mmHg 80%
    06:00 +10°C° 0.1 mm 9 mps 737 mmHg 79%
    07:00 +9°C° 0 mm 8 mps 738 mmHg 76%
    08:00 +7°C° 0 mm 8 mps 739 mmHg 73%
    09:00 +6°C° 0 mm 7 mps 740 mmHg 70%
    10:00 +7°C° 0 mm 8 mps 741 mmHg 70%
    11:00 +8°C° 0 mm 9 mps 741 mmHg 70%
    12:00 +10°C° 0 mm 9 mps 742 mmHg 70%
    13:00 +10°C° 0 mm 9 mps 742 mmHg 72%
    14:00 +10°C° 0 mm 8 mps 742 mmHg 73%
    15:00 +10°C° 0 mm 8 mps 742 mmHg 74%
    16:00 +10°C° 1.7 mm 7 mps 742 mmHg 78%
    17:00 +9°C° 1.7 mm 6 mps 742 mmHg 82%
    18:00 +9°C° 1.7 mm 5 mps 742 mmHg 87%
    19:00 +8°C° 0.1 mm 5 mps 743 mmHg 86%
    20:00 +8°C° 0.1 mm 4 mps 744 mmHg 86%
    21:00 +8°C° 0.1 mm 3 mps 744 mmHg 86%
    22:00 +8°C° 0 mm 3 mps 745 mmHg 87%
    23:00 +7°C° 0 mm 3 mps 746 mmHg 87%

    24 November, Friday

    Time Temperature Precipitation Wind Pressure Humidity
    00:00 +7°C° 0 mm 3 mps 746 mmHg 87%
    01:00 +7°C° 0 mm 2 mps 746 mmHg 87%
    02:00 +7°C° 0 mm 2 mps 746 mmHg 87%
    03:00 +8°C° 0 mm 1 mps 747 mmHg 86%
    04:00 +8°C° 0.1 mm 1 mps 746 mmHg 86%
    05:00 +8°C° 0.1 mm 1 mps 746 mmHg 86%
    06:00 +8°C° 0.1 mm 1 mps 746 mmHg 86%
    07:00 +8°C° 0.2 mm 1 mps 746 mmHg 87%
    08:00 +7°C° 0.2 mm 2 mps 746 mmHg 88%
    09:00 +7°C° 0.2 mm 3 mps 746 mmHg 88%
    10:00 +7°C° 0.3 mm 3 mps 745 mmHg 89%
    11:00 +8°C° 0.3 mm 3 mps 745 mmHg 90%
    12:00 +7°C° 0.3 mm 4 mps 744 mmHg 91%
    13:00 +9°C° 0.4 mm 3 mps 744 mmHg 92%
    14:00 +9°C° 0.4 mm 3 mps 743 mmHg 93%
    15:00 +10°C° 0.4 mm 3 mps 743 mmHg 95%
    16:00 +10°C° 0.5 mm 3 mps 743 mmHg 95%
    17:00 +10°C° 0.5 mm 3 mps 743 mmHg 96%
    18:00 +10°C° 0.5 mm 3 mps 742 mmHg 96%
    19:00 +10°C° 0.5 mm 3 mps 742 mmHg 96%
    20:00 +10°C° 0.5 mm 4 mps 742 mmHg 95%
    21:00 +11°C° 0.5 mm 4 mps 741 mmHg 95%
    22:00 +10°C° 0.9 mm 5 mps 740 mmHg 92%
    23:00 +10°C° 0.9 mm 7 mps 739 mmHg 89%

    25 November, Saturday

    Time Temperature Precipitation Wind Pressure Humidity
    00:00 +10°C° 0.9 mm 8 mps 737 mmHg 86%
    01:00 +10°C° 0.5 mm 9 mps 736 mmHg 83%
    02:00 +10°C° 0.5 mm 9 mps 734 mmHg 80%
    03:00 +8°C° 0.5 mm 10 mps 733 mmHg 77%
    04:00 +8°C° 0.2 mm 9 mps 733 mmHg 79%
    05:00 +7°C° 0.2 mm 9 mps 733 mmHg 81%
    06:00 +7°C° 0.2 mm 8 mps 733 mmHg 83%
    07:00 +5°C° 0.5 mm 10 mps 735 mmHg 80%
    08:00 +3°C° 0.5 mm 12 mps 738 mmHg 77%
    09:00 +1°C° 0.5 mm 14 mps 740 mmHg 75%
    10:00 +2°C° 0.2 mm 12 mps 743 mmHg 74%
    11:00 +2°C° 0.2 mm 11 mps 745 mmHg 73%
    12:00 +2°C° 0.2 mm 9 mps 748 mmHg 71%
    13:00 +2°C° 0.1 mm 8 mps 749 mmHg 70%
    14:00 +3°C° 0.1 mm 7 mps 750 mmHg 69%
    15:00 +3°C° 0.1 mm 6 mps 751 mmHg 68%
    16:00 +3°C° 0 mm 6 mps 751 mmHg 69%
    17:00 +2°C° 0 mm 6 mps 752 mmHg 71%
    18:00 +2°C° 0 mm 5 mps 753 mmHg 72%
    19:00 +1°C° 0 mm 5 mps 753 mmHg 72%
    20:00 +1°C° 0 mm 5 mps 754 mmHg 73%
    21:00 +1°C° 0 mm 5 mps 754 mmHg 73%
    22:00 +1°C° 0 mm 5 mps 755 mmHg 74%
    23:00 +1°C° 0 mm 5 mps 755 mmHg 74%

    26 November, Sunday

    Time Temperature Precipitation Wind Pressure Humidity
    00:00 +1°C° 0 mm 5 mps 755 mmHg 74%
    01:00 +1°C° 0 mm 5 mps 755 mmHg 74%
    02:00 +1°C° 0 mm 5 mps 755 mmHg 75%
    03:00 +1°C° 0 mm 5 mps 756 mmHg 75%
    04:00 0°C° 0 mm 5 mps 756 mmHg 75%
    05:00 0°C° 0 mm 5 mps 756 mmHg 74%
    06:00 0°C° 0 mm 5 mps 756 mmHg 74%
    07:00 +1°C° 0 mm 5 mps 757 mmHg 73%
    08:00 +1°C° 0 mm 6 mps 757 mmHg 72%
    09:00 +2°C° 0 mm 6 mps 758 mmHg 71%
    10:00 +3°C° 0 mm 6 mps 758 mmHg 70%
    11:00 +4°C° 0 mm 7 mps 759 mmHg 70%
    12:00 +5°C° 0 mm 7 mps 759 mmHg 69%
    13:00 +5°C° 0 mm 6 mps 759 mmHg 72%
    14:00 +6°C° 0 mm 5 mps 760 mmHg 74%
    15:00 +6°C° 0 mm 4 mps 760 mmHg 77%
    16:00 +5°C° 0 mm 4 mps 760 mmHg 80%
    17:00 +4°C° 0 mm 4 mps 760 mmHg 82%
    18:00 +3°C° 0 mm 4 mps 761 mmHg 85%
    19:00 +3°C° 0 mm 4 mps 761 mmHg 84%
    20:00 +3°C° 0 mm 4 mps 761 mmHg 83%
    21:00 +3°C° 0 mm 4 mps 761 mmHg 82%
    22:00 +3°C° 0 mm 4 mps 761 mmHg 81%
    23:00 +3°C° 0 mm 4 mps 761 mmHg 81%
    Show more